This is the latest recevied weather packets stored in our database for station/object W2TAO. If no packets are shown the sender has not sent any weather packets the latest 10 day(s).
| Time | Temp. | Humidity | Pressure | Rain* | Wind** | Luminosity | Snow |
|---|---|---|---|---|---|---|---|
| 1777721562 | 4.44° C | 99% | 1014.1 hPa | 0 mm | - | 92 W/m² | - |
| 1777721260 | 4.44° C | 99% | 1014 hPa | 0 mm | - | 60 W/m² | - |
| 1777720957 | 4.44° C | 99% | 1013.9 hPa | 0 mm | - | 79 W/m² | - |
| 1777720654 | 5° C | 99% | 1014.1 hPa | 0 mm | - | 70 W/m² | - |
| 1777720351 | 5° C | 99% | 1014 hPa | 0 mm | - | 74 W/m² | - |
| 1777720049 | 5° C | 99% | 1013.7 hPa | 0 mm | - | 67 W/m² | - |
| 1777719746 | 5° C | 99% | 1013.6 hPa | 0 mm | - | 46 W/m² | - |
| 1777719444 | 5° C | 99% | 1013.4 hPa | 0 mm | - | 39 W/m² | - |
| 1777719140 | 5° C | 99% | 1013.3 hPa | 0 mm | - | 28 W/m² | - |
| 1777718838 | 5.56° C | 99% | 1013.4 hPa | 0 mm | - | 17 W/m² | - |
| 1777718535 | 5.56° C | 99% | 1013.4 hPa | 0 mm | - | 9 W/m² | - |
| 1777718233 | 5.56° C | 99% | 1013.3 hPa | 0 mm | - | 6 W/m² | - |
| 1777717931 | 5.56° C | 99% | 1013.3 hPa | 0 mm | - | 3 W/m² | - |
| 1777717627 | 5.56° C | 99% | 1013.2 hPa | 0 mm | - | 3 W/m² | - |
| 1777717324 | 5.56° C | 99% | 1013.1 hPa | 0 mm | - | 3 W/m² | - |
| 1777717022 | 5.56° C | 99% | 1013.1 hPa | 0 mm | - | 2 W/m² | - |
| 1777716720 | 5.56° C | 99% | 1013 hPa | 0 mm | - | 2 W/m² | - |
| 1777716418 | 5.56° C | 99% | 1013 hPa | 0 mm | - | 1 W/m² | - |
| 1777716116 | 5.56° C | 99% | 1013 hPa | 0 mm | - | 1 W/m² | - |
| 1777715814 | 5.56° C | 99% | 1012.9 hPa | 0 mm | - | 1 W/m² | - |
| 1777715511 | 5.56° C | 99% | 1012.7 hPa | 0 mm | - | 0 W/m² | - |
| 1777715208 | 5.56° C | 99% | 1012.6 hPa | 0 mm | - | 0 W/m² | - |
| 1777714906 | 5.56° C | 99% | 1012.6 hPa | 0 mm | - | 0 W/m² | - |
| 1777714604 | 5° C | 99% | 1012.3 hPa | 0 mm | - | 0 W/m² | - |
| 1777714301 | 5° C | 99% | 1012.6 hPa | 0 mm | - | 0 W/m² | - |
* Rain latest hour (hover to see other rain measurements)
** Current wind speed in m/s (hover to see current wind gust speed)